Location: Apollinopolis Magna
(24.9792°N, 32.8772°E)
Time: 04:51:54
(UTC+00:00)

Cosmos 1515 - Pass Details

Date: 02 March 2021
Orbit: 504 x 516 km, 82.5° (Epoch: 12 April)

Event Time Altitude Azimuth Distance (km) Brightness Sun altitude
Rises 16:42:21 0° 1° (N) 2,626 7.3 -12.4°
Reaches altitude 10° 16:44:32 10° 6° (N) 1,735 6.3 -12.9°
Maximum altitude 16:48:15 51° 83° (E) 646 3.8 -13.7°
Drops below altitude 10° 16:51:55 10° 160° (SSE) 1,720 6.2 -14.5°
Sets 16:54:04 0° 166° (SSE) 2,600 7.1 -15.0°
